This demonstration page uses our WeatherBlox Daily Observations layout. Learn more.

Left ArrowRight Arrow

Hourly Observations for March 21, 2016

Temp ( °F °C ) Dew Point ( °F °C ) Humidity (%) Winds ( mph kmh ) Pressure ( in mb ) Visibility ( mi km ) Precip ( " mm )
12:54 am 00:54 Clear 30 -1.1 19 -7.2 64 64 SSE 5 7 30.23 1024 10 16 0.00 0.00
1:54 am 01:54 Clear 30 -1.1 19 -7.2 64 64 SSE 6 9 30.22 1023 10 16 0.00 0.00
2:54 am 02:54 Clear 31 -0.6 19 -7.2 61 61 SSE 6 9 30.19 1023 10 16 0.00 0.00
3:54 am 03:54 Clear 31 -0.6 19 -7.2 61 61 ESE 3 6 30.17 1022 10 16 0.00 0.00
4:54 am 04:54 Clear 27 -2.8 19 -7.2 72 72 S 9 15 30.14 1021 10 16 0.00 0.00
5:54 am 05:54 Clear 28 -2.2 21 -6.1 75 75 S 10 17 30.11 1020 10 16 0.00 0.00
6:54 am 06:54 Clear 34 1.1 22 -5.6 61 61 S 13 20 30.08 1019 10 16 0.00 0.00
7:54 am 07:54 Sunny 33 0.6 22 -5.6 64 64 S 12 19 30.08 1019 10 16 0.00 0.00
8:54 am 08:54 Sunny 38 3.3 23 -5 55 55 SSW 12 19 30.07 1018 10 16 0.00 0.00
9:54 am 09:54 Sunny 44 6.7 23 -5 43 43 S 21 33 30.03 1017 10 16 0.00 0.00
10:54 am 10:54 Sunny 48 8.9 25 -3.9 41 41 S 21 33 30.01 1016 10 16 0.00 0.00
11:54 am 11:54 Sunny 52 11.1 26 -3.3 37 37 SSW 20 31 29.97 1015 10 16 0.00 0.00
12:54 pm 12:54 Sunny 57 13.9 28 -2.2 33 33 S 21 33 29.92 1013 10 16 0.00 0.00
1:54 pm 13:54 Sunny 60 15.6 28 -2.2 30 30 S 23 37 29.87 1012 10 16 0.00 0.00
2:54 pm 14:54 Sunny 64 17.8 29 -1.7 27 27 S 25 41 29.81 1010 10 16 0.00 0.00
3:54 pm 15:54 Sunny 68 20 29 -1.7 23 23 S 22 35 29.76 1008 10 16 0.00 0.00
4:54 pm 16:54 Sunny 70 21.1 29 -1.7 22 22 SSW 24 39 29.74 1007 10 16 0.00 0.00
5:54 pm 17:54 Sunny 70 21.1 31 -0.6 23 23 SSW 22 35 29.70 1006 10 16 0.00 0.00
6:54 pm 18:54 Sunny 67 19.4 32 0 27 27 SSW 15 24 29.71 1006 10 16 0.00 0.00
7:54 pm 19:54 Clear 60 15.6 34 1.1 38 38 S 12 19 29.70 1006 10 16 0.00 0.00
8:54 pm 20:54 Clear 58 14.4 35 1.7 42 42 S 12 19 29.69 1005 10 16 0.00 0.00
9:54 pm 21:54 Clear 62 16.7 34 1.1 35 35 S 16 26 29.67 1005 10 16 0.00 0.00
10:54 pm 22:54 Clear 61 16.1 34 1.1 36 36 SSW 18 30 29.65 1004 10 16 0.00 0.00
11:54 pm 23:54 Clear 60 15.6 35 1.7 39 39 SSW 14 22 29.63 1004 10 16 0.00 0.00

Powered by AerisWeather